User: anonymous   Login
Location: Unspecified
(20.0000°S, 0.0000°E)
Time: 13:13:22
(UTC+00:00)
Language:

NO-84 - Orbit

View from above orbital plane
View from above orbital plane
View from above satellite
View from above satellite

Ground track
Ground track

The orbit data is extracted from the following two-line orbital elements,

1 40654U 15025D   19198.14029793  .00008601  00000 0  12006-3 0  6695
2 40654  54.9896  42.9743 0138539  40.4262 320.6962 15.47448927116858
Epoch (UTC): 17 July 2019 03:22:01
Eccentricity: 0.0138539
inclination: 54.9896°
perigee height: 330 km
apogee height: 518 km
right ascension of ascending node: 42.9743°
argument of perigee: 40.4262°
revolutions per day: 15.47448927
mean anomaly at epoch: 320.6962°
orbit number at epoch: 11685

The dashed part of the orbit path shows where the satellite is in the earth's shadow,  

DLR